Погода в Иванищах

Россия / Владимирская область     55°46′31″N   40°25′27″E
темп.,
°C
ветер,
м/с
пор.,
м/с
влажн.,
%
обл.,
%
осадки,
мм/ч
давл.,
гПа
погр.,
м
29 ноября, пн
пн2900:00−2ююз2497100 0.0 101187
03:00−2ююв2498100 0.0 101280
06:000юв2598100 0.0 1010132
09:00+2юв31096100 0.0 1009268
12:00+4юв41193100 0.0 1007410
15:00+5в3895100 0.0 1003309
18:00+5вюв41097100 0.5 1000515
21:00+4вюв41098100 0.6 996460
30 ноября, вт
вт3000:00+6вюв51398100 0.2 990567
03:00+7вюв71595100 6.8 982977
06:00+9ююв71892100 5.6 9751496
09:00+7ююз91786100 6.6 9751448
12:00+6юз101968100 0.1 9791525
15:00+3ююз91670100 0.1 9791686
18:00+1ююз91876100 0.2 9791883
21:00−1ююз81791100 0.8 9791428
1 декабря, ср
ср100:00−1юз81676100 0.8 9821433
03:00−2юз7148492 0.9 9851302
06:00−2зюз61277100 0.1 9861294
09:00−2юз5108198 0.2 9891082
12:00−2зюз598096 0.2 9891052
15:00−2зюз4971100 0.3 9901180
18:00−3зюз4874100 0.0 9911043
21:00−3з4875100 0.1 9921011
2 декабря, чт
чт200:00−4з487183 0.1 995985
03:00−5з497798 0.1 997817
06:00−6зюз4981100 0.0 998643
09:00−6юз3880100 0.0 1000499
12:00−4ююз4767100 0.0 1000466
15:00−3ю4965100 0.0 999805
18:00−3ю4129299 0.7 998610
21:00−2ю41196100 1.0 997457
3 декабря, пт
пт300:00+1юз51297100 0.5 997727
03:00+1юз51197100 0.6 998893
06:00+2юз61283100 0.1 9991015
09:00+2юз51386100 0.1 1002841
12:00+2зюз51181100 0.0 1004924
15:00+1юз41085100 0.0 1006599
18:000ююз3894100 0.0 1007344
21:00+1ююв31098100 0.8 1005544